Location: Unspecified
(0.0000°N, 0.0000°E)
Time: 06:57:47
(UTC+00:00)

deb r/b Ablestar - Pass Details

Date: 07 March 2026
Orbit: 937 x 1853 km, 67.2° (Epoch: 14 April)

Event Time Altitude Azimuth Distance (km) Brightness Sun altitude
Rises 21:26:16 0° 325° (NW) 5,121 ? -48.6°
Reaches altitude 10° 21:29:41 10° 318° (NW) 4,176 ? -49.4°
Enters shadow 21:39:22 42° 256° (WSW) 2,448 ? -51.8°
Exits shadow 21:52:38 - 177° (S) 4,927 ? -55.1°
